M I D A S
Marine Information and Data Acquisition System
Tripno 1257 of the Zeeleeuw from 2007-02-15 09:01:34 to 2007-02-15 15:33:29
Back to CruiseResearch ActivitiesStationsMapUnderway DataData graphs

EquipmentUnitsComments
TimeDGPSUTC
LatitudeDGPSDM.mWGS84
LongitudeDGPSDM.mWGS84
SpeedMeteo Stationm/sRelative wind speed
DirectionMeteo StationdegRelative wind direction
TemperatureMeteo Stationdeg CelciusAir temperature
PressureMeteo StationPaAtmospheric pressure
HumidityMeteo Station%Relative humidity
Missing or incorrect values are displayed as -999
Metereological data collected by the RV Zeeleeuw from 2007-02-15 07:24:43 to 2007-02-15 15:42:20
                                                                                    Next 1000 lines
Time Latitude Longitude Speed Direction Temperature Pressure Humidity
2007-02-15 07:24:53 51°13.598 2°56.093 1.2 356 2.7 102040 97
2007-02-15 07:24:58 51°13.598 2°56.093 2.1 360 2.6 102040 97
2007-02-15 07:25:03 51°13.598 2°56.093 3.4 4 2.6 102040 97
2007-02-15 07:25:07 51°13.598 2°56.094 2.8 351 2.6 102040 97
2007-02-15 07:25:13 51°13.598 2°56.094 2.1 358 2.6 102040 97
2007-02-15 07:25:18 51°13.598 2°56.094 2.7 350 2.7 102040 97
2007-02-15 07:25:23 51°13.598 2°56.094 2.7 5 2.7 102040 97
2007-02-15 07:25:28 51°13.598 2°56.094 2.4 2 2.7 102040 97
2007-02-15 07:25:33 51°13.598 2°56.094 2.8 -999 2.7 102040 97
2007-02-15 07:25:38 51°13.598 2°56.094 2.6 351 2.7 102040 97
2007-02-15 07:25:42 51°13.598 2°56.094 2 348 2.7 102040 97
2007-02-15 07:25:48 51°13.598 2°56.094 2 344 2.7 102040 97
2007-02-15 07:25:53 51°13.598 2°56.094 2.2 280 2.7 102040 97
2007-02-15 07:25:58 51°13.598 2°56.094 2.3 343 2.7 102040 97
2007-02-15 07:26:03 51°13.598 2°56.094 1.8 283 2.7 102040 97
2007-02-15 07:26:08 51°13.598 2°56.094 1.9 355 2.7 102040 97
2007-02-15 07:26:13 51°13.598 2°56.094 2.2 358 2.7 102040 97
2007-02-15 07:26:18 51°13.598 2°56.094 1.9 1 2.7 102040 97
2007-02-15 07:26:23 51°13.598 2°56.094 1.4 347 2.7 102040 97
2007-02-15 07:26:28 51°13.598 2°56.094 2.6 348 2.7 102040 97
2007-02-15 07:26:33 51°13.598 2°56.094 2.2 349 2.7 102040 97
2007-02-15 07:26:38 51°13.598 2°56.094 2 357 2.7 102050 97
2007-02-15 07:26:43 51°13.598 2°56.094 2 358 2.7 102050 97
2007-02-15 07:26:47 51°13.598 2°56.094 2.3 356 2.7 102050 97
2007-02-15 07:26:53 51°13.598 2°56.094 2.6 357 2.7 102050 97
2007-02-15 07:26:58 51°13.598 2°56.094 2.3 352 2.7 102050 97
2007-02-15 07:27:03 51°13.598 2°56.094 3.1 350 2.7 102050 97
2007-02-15 07:27:07 51°13.598 2°56.094 2.3 343 2.7 102050 97
2007-02-15 07:27:13 51°13.599 2°56.094 2.4 351 2.7 102050 97
2007-02-15 07:27:18 51°13.599 2°56.094 2.4 351 2.7 102050 96
2007-02-15 07:27:23 51°13.599 2°56.094 3 354 2.7 102050 96
2007-02-15 07:27:27 51°13.599 2°56.094 2.5 349 2.7 102050 96
2007-02-15 07:27:33 51°13.599 2°56.094 2.3 351 2.7 102050 96
2007-02-15 07:27:38 51°13.599 2°56.094 1.5 3 2.7 102050 96
2007-02-15 07:27:43 51°13.599 2°56.094 2.5 354 2.7 102050 96
2007-02-15 07:27:48 51°13.599 2°56.094 2.3 -999 2.7 102050 96
2007-02-15 07:27:53 51°13.599 2°56.094 2.6 281 2.7 102050 96
2007-02-15 07:27:58 51°13.599 2°56.094 2.4 355 2.7 102050 96
2007-02-15 07:28:03 51°13.599 2°56.094 2.1 358 2.7 102050 96
2007-02-15 07:28:08 51°13.599 2°56.094 2.3 344 2.8 102050 96
2007-02-15 07:28:13 51°13.599 2°56.094 2.9 281 2.8 102050 96
2007-02-15 07:28:18 51°13.599 2°56.094 2.2 345 2.7 102050 96
2007-02-15 07:28:23 51°13.599 2°56.094 2.7 350 2.7 102050 96
2007-02-15 07:28:28 51°13.599 2°56.094 2.5 356 2.7 102050 96
2007-02-15 07:28:33 51°13.599 2°56.094 2.1 346 2.7 102050 96
2007-02-15 07:28:38 51°13.599 2°56.094 2.6 356 2.7 102050 96
2007-02-15 07:28:43 51°13.599 2°56.094 1.6 357 2.7 102050 96
2007-02-15 07:28:48 51°13.599 2°56.094 1.6 349 2.8 102050 96
2007-02-15 07:28:53 51°13.599 2°56.094 2 353 2.8 102050 96
2007-02-15 07:28:58 51°13.599 2°56.093 2.4 354 2.8 102050 96
2007-02-15 07:29:03 51°13.599 2°56.093 1.8 283 2.8 102050 96
2007-02-15 07:29:08 51°13.599 2°56.093 2 353 2.8 102050 96
2007-02-15 07:29:13 51°13.599 2°56.093 1.8 286 2.8 102050 96
2007-02-15 07:29:18 51°13.599 2°56.093 1.6 347 2.8 102050 96
2007-02-15 07:29:23 51°13.599 2°56.094 1.4 279 2.8 102050 96
2007-02-15 07:29:27 51°13.599 2°56.094 1 326 2.8 102050 96
2007-02-15 07:29:33 51°13.599 2°56.094 2.2 278 2.8 102050 96
2007-02-15 07:29:38 51°13.599 2°56.094 2.2 350 2.8 102050 96
2007-02-15 07:29:43 51°13.599 2°56.094 1.9 360 2.8 102050 96
2007-02-15 07:29:47 51°13.599 2°56.094 1.3 1 2.8 102050 96
2007-02-15 07:29:53 51°13.599 2°56.094 1.4 344 2.8 102050 96
2007-02-15 07:29:58 51°13.599 2°56.094 2 348 2.8 102050 96
2007-02-15 07:30:03 51°13.599 2°56.094 1.8 353 2.8 102050 96
2007-02-15 07:30:07 51°13.599 2°56.094 2.1 358 2.8 102050 96
2007-02-15 07:30:13 51°13.599 2°56.094 1.9 352 2.8 102050 96
2007-02-15 07:30:18 51°13.599 2°56.094 2.5 354 2.8 102050 96
2007-02-15 07:30:23 51°13.599 2°56.094 2.1 353 2.8 102050 96
2007-02-15 07:30:27 51°13.599 2°56.094 1.6 357 2.8 102050 96
2007-02-15 07:30:33 51°13.599 2°56.094 1.8 353 2.8 102050 96
2007-02-15 07:30:38 51°13.599 2°56.094 1.3 347 2.8 102060 96
2007-02-15 07:30:43 51°13.599 2°56.094 1.9 286 2.8 102060 96
2007-02-15 07:30:48 51°13.599 2°56.094 1.6 349 2.8 102050 96
2007-02-15 07:30:53 51°13.599 2°56.094 1.4 346 2.8 102050 96
2007-02-15 07:30:58 51°13.599 2°56.094 2.1 355 2.8 102050 96
2007-02-15 07:31:03 51°13.599 2°56.094 1.8 355 2.8 102050 96
2007-02-15 07:31:08 51°13.599 2°56.094 1.9 351 2.8 102050 96
2007-02-15 07:31:13 51°13.599 2°56.094 2 278 2.8 102050 96
2007-02-15 07:31:18 51°13.599 2°56.094 1.6 353 2.8 102060 96
2007-02-15 07:31:23 51°13.6 2°56.094 2.4 354 2.8 102060 96
2007-02-15 07:31:28 51°13.6 2°56.094 2.2 358 2.8 102060 96
2007-02-15 07:31:33 51°13.6 2°56.094 2.1 282 2.8 102060 96
2007-02-15 07:31:38 51°13.6 2°56.094 2 350 2.8 102060 96
2007-02-15 07:31:43 51°13.6 2°56.094 2.1 354 2.8 102060 96
2007-02-15 07:31:48 51°13.6 2°56.094 1.9 -999 2.8 102060 96
2007-02-15 07:31:53 51°13.6 2°56.094 2.7 355 2.8 102060 96
2007-02-15 07:31:58 51°13.6 2°56.094 2 342 2.8 102060 95
2007-02-15 07:32:03 51°13.6 2°56.094 1.9 279 2.8 102060 95
2007-02-15 07:32:07 51°13.6 2°56.094 2.8 342 2.8 102060 95
2007-02-15 07:32:13 51°13.6 2°56.094 2.6 279 2.8 102060 95
2007-02-15 07:32:18 51°13.6 2°56.094 1.6 353 2.8 102060 95
2007-02-15 07:32:23 51°13.6 2°56.094 2.6 281 2.8 102060 95
2007-02-15 07:32:27 51°13.6 2°56.094 2.3 353 2.8 102060 95
2007-02-15 07:32:33 51°13.6 2°56.094 2.8 349 2.8 102060 95
2007-02-15 07:32:38 51°13.6 2°56.094 2.2 354 2.8 102060 95
2007-02-15 07:32:43 51°13.6 2°56.094 2 351 2.8 102060 95
2007-02-15 07:32:47 51°13.6 2°56.094 1.9 350 2.8 102060 95
2007-02-15 07:32:53 51°13.599 2°56.094 2 350 2.8 102060 95
2007-02-15 07:32:58 51°13.6 2°56.094 1.7 339 2.8 102060 95
2007-02-15 07:33:03 51°13.6 2°56.094 1.7 285 2.8 102060 95
2007-02-15 07:33:07 51°13.599 2°56.094 1.6 347 2.8 102060 95
2007-02-15 07:33:13 51°13.599 2°56.094 1.7 280 2.8 102060 95
2007-02-15 07:33:18 51°13.599 2°56.094 2.5 346 2.8 102060 95
2007-02-15 07:33:23 51°13.599 2°56.094 1.9 350 2.8 102060 95
2007-02-15 07:33:28 51°13.599 2°56.094 2.7 355 2.8 102060 95
2007-02-15 07:33:33 51°13.6 2°56.094 2.3 349 2.8 102060 95
2007-02-15 07:33:38 51°13.6 2°56.094 1.5 355 2.8 102060 95
2007-02-15 07:33:43 51°13.6 2°56.094 3 353 2.8 102060 95
2007-02-15 07:33:48 51°13.6 2°56.094 2.9 349 2.8 102060 95
2007-02-15 07:33:53 51°13.6 2°56.094 2.7 279 2.8 102060 95
2007-02-15 07:33:58 51°13.6 2°56.094 2.6 346 2.8 102060 95
2007-02-15 07:34:03 51°13.6 2°56.094 2.2 353 2.8 102060 95
2007-02-15 07:34:08 51°13.6 2°56.094 1.8 349 2.7 102060 95
2007-02-15 07:34:13 51°13.6 2°56.094 2.3 281 2.7 102060 95
2007-02-15 07:34:18 51°13.6 2°56.094 2.3 348 2.7 102060 95
2007-02-15 07:34:23 51°13.6 2°56.094 1.7 280 2.7 102060 95
2007-02-15 07:34:28 51°13.599 2°56.094 1.5 354 2.7 102060 95
2007-02-15 07:34:33 51°13.599 2°56.094 1.6 344 2.7 102060 95
2007-02-15 07:34:38 51°13.599 2°56.094 2 347 2.7 102060 95
2007-02-15 07:34:43 51°13.599 2°56.094 2.1 353 2.7 102060 95
2007-02-15 07:34:47 51°13.599 2°56.094 2.6 344 2.7 102060 95
2007-02-15 07:34:53 51°13.599 2°56.094 2.7 349 2.7 102060 95
2007-02-15 07:34:58 51°13.599 2°56.094 2.4 337 2.7 102070 95
2007-02-15 07:35:03 51°13.599 2°56.094 2 286 2.7 102070 95
2007-02-15 07:35:07 51°13.599 2°56.094 1.7 351 2.7 102070 95
2007-02-15 07:35:13 51°13.599 2°56.094 1.8 351 2.7 102070 95
2007-02-15 07:35:18 51°13.599 2°56.094 1.8 352 2.7 102070 95
2007-02-15 07:35:23 51°13.599 2°56.094 2.2 349 2.7 102070 95
2007-02-15 07:35:27 51°13.599 2°56.094 2.2 347 2.7 102070 95
2007-02-15 07:35:33 51°13.599 2°56.093 2 285 2.7 102070 95
2007-02-15 07:35:38 51°13.599 2°56.093 2.5 340 2.7 102070 95
2007-02-15 07:35:43 51°13.599 2°56.093 2.5 284 2.7 102070 95
2007-02-15 07:35:48 51°13.599 2°56.093 1.8 354 2.7 102070 95
2007-02-15 07:35:53 51°13.599 2°56.093 1.5 355 2.7 102070 95
2007-02-15 07:35:58 51°13.599 2°56.093 1.5 345 2.7 102070 95
2007-02-15 07:36:03 51°13.599 2°56.093 1.8 283 2.7 102070 95
2007-02-15 07:36:08 51°13.599 2°56.093 1.9 343 2.7 102070 95
2007-02-15 07:36:13 51°13.599 2°56.094 2 353 2.7 102070 95
2007-02-15 07:36:18 51°13.599 2°56.093 2.1 343 2.7 102070 95
2007-02-15 07:36:23 51°13.599 2°56.094 2 279 2.7 102070 95
2007-02-15 07:36:28 51°13.599 2°56.094 2.3 334 2.7 102070 95
2007-02-15 07:36:33 51°13.599 2°56.094 1.7 281 2.7 102070 95
2007-02-15 07:36:38 51°13.599 2°56.094 1.8 344 2.7 102070 95
2007-02-15 07:36:43 51°13.599 2°56.093 2.5 346 2.7 102070 95
2007-02-15 07:36:48 51°13.599 2°56.093 1.8 358 2.7 102070 95
2007-02-15 07:36:53 51°13.599 2°56.093 2.4 354 2.7 102070 95
2007-02-15 07:36:58 51°13.599 2°56.094 1.9 346 2.7 102070 95
2007-02-15 07:37:03 51°13.599 2°56.094 1.7 283 2.7 102070 95
2007-02-15 07:37:08 51°13.599 2°56.094 2.2 335 2.7 102070 95
2007-02-15 07:37:13 51°13.599 2°56.094 2.4 283 2.7 102070 95
2007-02-15 07:37:18 51°13.599 2°56.094 2.3 351 2.7 102070 95
2007-02-15 07:37:23 51°13.599 2°56.094 2.1 356 2.7 102070 95
2007-02-15 07:37:27 51°13.599 2°56.094 1.9 357 2.7 102070 95
2007-02-15 07:37:33 51°13.599 2°56.094 1.9 356 2.7 102070 95
2007-02-15 07:37:38 51°13.599 2°56.094 2.2 343 2.7 102070 95
2007-02-15 07:37:43 51°13.599 2°56.094 2 350 2.7 102070 95
2007-02-15 07:37:47 51°13.599 2°56.094 1.7 347 2.7 102070 95
2007-02-15 07:37:53 51°13.599 2°56.094 1.6 351 2.7 102070 95
2007-02-15 07:37:58 51°13.598 2°56.094 1.6 348 2.7 102070 95
2007-02-15 07:38:03 51°13.598 2°56.094 1.6 1 2.7 102070 95
2007-02-15 07:38:08 51°13.598 2°56.094 1.4 342 2.7 102070 95
2007-02-15 07:38:13 51°13.598 2°56.094 1.9 283 2.7 102070 95
2007-02-15 07:38:18 51°13.599 2°56.094 2.1 349 2.7 102070 95
2007-02-15 07:38:23 51°13.598 2°56.094 1.8 280 2.7 102070 95
2007-02-15 07:38:28 51°13.599 2°56.094 2 346 2.7 102070 95
2007-02-15 07:38:33 51°13.599 2°56.094 2 286 2.7 102070 95
2007-02-15 07:38:38 51°13.598 2°56.094 2.4 344 2.7 102070 95
2007-02-15 07:38:43 51°13.598 2°56.094 1.8 354 2.7 102070 95
2007-02-15 07:38:48 51°13.598 2°56.094 2.2 336 2.7 102070 95
2007-02-15 07:38:53 51°13.598 2°56.094 2 349 2.7 102070 95
2007-02-15 07:38:58 51°13.599 2°56.094 1.5 345 2.7 102070 95
2007-02-15 07:39:03 51°13.599 2°56.094 1.9 281 2.7 102070 95
2007-02-15 07:39:08 51°13.599 2°56.094 1.6 339 2.7 102070 95
2007-02-15 07:39:13 51°13.599 2°56.094 1.8 355 2.7 102070 95
2007-02-15 07:39:18 51°13.599 2°56.094 1.9 337 2.7 102070 95
2007-02-15 07:39:23 51°13.599 2°56.094 1.7 352 2.7 102070 95
2007-02-15 07:39:28 51°13.599 2°56.094 1.8 359 2.7 102070 95
2007-02-15 07:39:33 51°13.599 2°56.094 2.4 286 2.7 102070 95
2007-02-15 07:39:38 51°13.599 2°56.094 2.4 349 2.7 102070 95
2007-02-15 07:39:43 51°13.598 2°56.094 2 280 2.7 102070 95
2007-02-15 07:39:47 51°13.598 2°56.094 1.9 350 2.7 102070 95
2007-02-15 07:39:53 51°13.599 2°56.094 2 356 2.7 102070 95
2007-02-15 07:39:58 51°13.599 2°56.094 2.1 346 2.7 102070 95
2007-02-15 07:40:03 51°13.599 2°56.094 1.8 283 2.7 102070 95
2007-02-15 07:40:07 51°13.599 2°56.094 1.9 341 2.7 102070 95
2007-02-15 07:40:13 51°13.599 2°56.094 2.1 280 2.7 102070 95
2007-02-15 07:40:18 51°13.599 2°56.094 2 342 2.7 102070 95
2007-02-15 07:40:23 51°13.599 2°56.094 1.7 286 2.7 102070 95
2007-02-15 07:40:27 51°13.599 2°56.094 1.4 345 2.7 102070 95
2007-02-15 07:40:33 51°13.599 2°56.094 2.4 281 2.7 102070 95
2007-02-15 07:40:38 51°13.599 2°56.094 2.4 344 2.7 102070 95
2007-02-15 07:40:43 51°13.599 2°56.094 1.8 282 2.7 102070 95
2007-02-15 07:40:47 51°13.599 2°56.094 2 350 2.7 102070 95
2007-02-15 07:40:53 51°13.599 2°56.094 1.7 357 2.7 102070 95
2007-02-15 07:40:58 51°13.599 2°56.094 1.8 354 2.8 102070 95
2007-02-15 07:41:03 51°13.599 2°56.094 1.4 359 2.8 102070 95
2007-02-15 07:41:08 51°13.598 2°56.094 1.3 354 2.8 102070 95
2007-02-15 07:41:13 51°13.598 2°56.094 1.4 353 2.8 102070 95
2007-02-15 07:41:18 51°13.598 2°56.094 1.8 359 2.8 102070 95
2007-02-15 07:41:23 51°13.598 2°56.093 1.6 279 2.8 102070 95
2007-02-15 07:41:28 51°13.598 2°56.093 2 342 2.8 102070 95
2007-02-15 07:41:33 51°13.598 2°56.093 1.9 279 2.8 102070 95
2007-02-15 07:41:38 51°13.598 2°56.093 1.8 354 2.8 102070 95
2007-02-15 07:41:43 51°13.598 2°56.093 1.8 -999 2.8 102070 95
2007-02-15 07:41:48 51°13.598 2°56.093 1.6 359 2.8 102070 95
2007-02-15 07:41:53 51°13.598 2°56.093 1.9 357 2.8 102070 95
2007-02-15 07:41:58 51°13.598 2°56.093 2 342 2.8 102080 95
2007-02-15 07:42:03 51°13.598 2°56.093 2.2 280 2.8 102080 95
2007-02-15 07:42:08 51°13.598 2°56.093 2 342 2.8 102070 95
2007-02-15 07:42:13 51°13.598 2°56.093 2.5 284 2.8 102070 95
2007-02-15 07:42:18 51°13.598 2°56.093 2.1 5 2.8 102080 94
2007-02-15 07:42:23 51°13.598 2°56.093 1.4 4 2.8 102080 94
2007-02-15 07:42:28 51°13.598 2°56.093 1.4 7 2.8 102080 94
2007-02-15 07:42:33 51°13.598 2°56.093 1.4 15 2.8 102080 94
2007-02-15 07:42:38 51°13.598 2°56.093 1.4 355 2.8 102070 94
2007-02-15 07:42:43 51°13.598 2°56.093 1.3 284 2.8 102070 94
2007-02-15 07:42:47 51°13.598 2°56.093 1.7 348 2.8 102070 94
2007-02-15 07:42:53 51°13.598 2°56.093 1.9 353 2.8 102070 94
2007-02-15 07:42:58 51°13.598 2°56.093 1.4 350 2.8 102070 94
2007-02-15 07:43:03 51°13.598 2°56.093 1.8 357 2.8 102070 94
2007-02-15 07:43:07 51°13.598 2°56.093 1.8 351 2.8 102070 94
2007-02-15 07:43:13 51°13.598 2°56.093 1.8 351 2.8 102070 94
2007-02-15 07:43:18 51°13.598 2°56.093 2.4 352 2.8 102080 94
2007-02-15 07:43:23 51°13.598 2°56.093 2 354 2.8 102080 94
2007-02-15 07:43:27 51°13.598 2°56.093 1.9 2 2.8 102080 94
2007-02-15 07:43:33 51°13.598 2°56.093 2.4 360 2.8 102080 94
2007-02-15 07:43:38 51°13.598 2°56.093 1.7 354 2.8 102080 94
2007-02-15 07:43:43 51°13.598 2°56.093 1.6 346 2.8 102080 94
2007-02-15 07:43:48 51°13.598 2°56.093 1.4 344 2.8 102080 94
2007-02-15 07:43:53 51°13.598 2°56.093 1.5 281 2.8 102080 94
2007-02-15 07:43:58 51°13.598 2°56.093 2.3 337 2.8 102080 94
2007-02-15 07:44:03 51°13.598 2°56.093 2.1 352 2.8 102080 94
2007-02-15 07:44:08 51°13.598 2°56.093 1.5 356 2.8 102080 94
2007-02-15 07:44:13 51°13.598 2°56.093 2 352 2.8 102080 94
2007-02-15 07:44:18 51°13.597 2°56.093 2.3 349 2.8 102080 94
2007-02-15 07:44:23 51°13.597 2°56.093 2.5 354 2.8 102080 94
2007-02-15 07:44:28 51°13.597 2°56.093 2.7 356 2.8 102080 94
2007-02-15 07:44:33 51°13.597 2°56.093 2.7 355 2.8 102080 94
2007-02-15 07:44:38 51°13.597 2°56.093 2.6 343 2.8 102070 94
2007-02-15 07:44:43 51°13.597 2°56.093 2.3 353 2.8 102070 94
2007-02-15 07:44:48 51°13.597 2°56.093 2.3 360 2.8 102080 94
2007-02-15 07:44:53 51°13.598 2°56.094 2.2 353 2.8 102080 94
2007-02-15 07:44:58 51°13.598 2°56.093 1.7 350 2.8 102080 94
2007-02-15 07:45:03 51°13.598 2°56.093 1.7 354 2.8 102080 94
2007-02-15 07:45:08 51°13.598 2°56.094 1.9 339 2.8 102080 94
2007-02-15 07:45:13 51°13.598 2°56.094 2 280 2.8 102080 94
2007-02-15 07:45:18 51°13.598 2°56.094 1.9 348 2.8 102080 94
2007-02-15 07:45:23 51°13.598 2°56.094 1.8 350 2.8 102080 94
2007-02-15 07:45:28 51°13.598 2°56.094 1.9 351 2.8 102070 94
2007-02-15 07:45:33 51°13.598 2°56.094 2.6 354 2.8 102070 94
2007-02-15 07:45:38 51°13.598 2°56.094 3 3 2.9 102080 94
2007-02-15 07:45:43 51°13.598 2°56.094 2.9 279 2.9 102080 94
2007-02-15 07:45:47 51°13.599 2°56.094 2 349 2.9 102080 94
2007-02-15 07:45:53 51°13.598 2°56.094 1.8 357 2.9 102080 94
2007-02-15 07:45:58 51°13.598 2°56.094 2.2 357 2.9 102070 94
2007-02-15 07:46:03 51°13.599 2°56.094 2 288 2.9 102070 94
2007-02-15 07:46:07 51°13.599 2°56.094 1.7 337 2.9 102080 94
2007-02-15 07:46:13 51°13.599 2°56.094 1.7 345 2.9 102080 94
2007-02-15 07:46:18 51°13.6 2°56.094 1.3 357 2.9 102070 94
2007-02-15 07:46:23 51°13.6 2°56.094 2.6 353 2.9 102070 94
2007-02-15 07:46:28 51°13.6 2°56.094 2.6 353 2.9 102080 94
2007-02-15 07:46:33 51°13.6 2°56.094 2.2 -999 2.9 102080 94
2007-02-15 07:46:38 51°13.599 2°56.094 2.4 344 2.9 102070 94
2007-02-15 07:46:43 51°13.599 2°56.094 2.4 354 2.9 102070 94
2007-02-15 07:46:48 51°13.6 2°56.094 1.9 349 2.9 102080 94
2007-02-15 07:46:53 51°13.6 2°56.094 1.7 354 2.9 102080 94
2007-02-15 07:46:58 51°13.598 2°56.094 2.4 350 3 102080 94
2007-02-15 07:47:03 51°13.598 2°56.094 2.5 350 3 102080 94
2007-02-15 07:47:08 51°13.598 2°56.094 2.4 354 3 102080 94
2007-02-15 07:47:13 51°13.598 2°56.094 2.5 353 3 102080 94
2007-02-15 07:47:18 51°13.598 2°56.094 2.6 353 2.9 102070 94
2007-02-15 07:47:23 51°13.598 2°56.094 2.2 345 2.9 102070 94
2007-02-15 07:47:28 51°13.598 2°56.094 2.4 350 2.9 102080 94
2007-02-15 07:47:33 51°13.599 2°56.094 2.5 -999 2.9 102080 94
2007-02-15 07:47:38 51°13.599 2°56.094 2.1 352 3 102080 94
2007-02-15 07:47:43 51°13.599 2°56.094 2 354 3 102080 94
2007-02-15 07:47:48 51°13.599 2°56.094 2.2 355 3 102080 94
2007-02-15 07:47:53 51°13.599 2°56.094 1.9 350 3 102080 94
2007-02-15 07:47:58 51°13.598 2°56.094 1.9 349 3 102080 94
2007-02-15 07:48:03 51°13.598 2°56.094 1.3 353 3 102080 94
2007-02-15 07:48:08 51°13.598 2°56.094 1.9 350 3 102080 94
2007-02-15 07:48:13 51°13.598 2°56.094 1.9 347 3 102080 94
2007-02-15 07:48:18 51°13.599 2°56.094 2.6 360 3 102080 94
2007-02-15 07:48:23 51°13.599 2°56.094 2.2 354 3 102080 94
2007-02-15 07:48:28 51°13.6 2°56.094 2.6 347 3 102080 94
2007-02-15 07:48:33 51°13.6 2°56.094 2.7 -999 3 102080 94
2007-02-15 07:48:38 51°13.6 2°56.094 2.5 359 3 102080 94
2007-02-15 07:48:43 51°13.6 2°56.094 2.4 3 3 102080 94
2007-02-15 07:48:47 51°13.6 2°56.094 2.5 354 3 102080 94
2007-02-15 07:48:53 51°13.599 2°56.094 1.8 358 3 102080 94
2007-02-15 07:48:58 51°13.598 2°56.094 2.4 348 3 102080 94
2007-02-15 07:49:03 51°13.598 2°56.094 2.7 358 3 102080 94
2007-02-15 07:49:08 51°13.598 2°56.094 2.5 355 3 102080 94
2007-02-15 07:49:13 51°13.599 2°56.094 2.6 1 3 102080 94
2007-02-15 07:49:18 51°13.599 2°56.094 2.5 1 3 102080 94
2007-02-15 07:49:23 51°13.599 2°56.094 2.1 352 3 102080 94
2007-02-15 07:49:28 51°13.599 2°56.093 2 356 3 102080 94
2007-02-15 07:49:33 51°13.599 2°56.093 2 358 3 102080 94
2007-02-15 07:49:38 51°13.599 2°56.094 1.8 6 3 102080 94
2007-02-15 07:49:43 51°13.599 2°56.093 1.8 347 3 102080 94
2007-02-15 07:49:48 51°13.599 2°56.094 1.6 348 3 102080 93
2007-02-15 07:49:53 51°13.599 2°56.093 1.6 350 3 102080 93
2007-02-15 07:49:58 51°13.599 2°56.094 1.9 353 3 102080 93
2007-02-15 07:50:03 51°13.6 2°56.094 2.1 353 3 102080 93
2007-02-15 07:50:08 51°13.6 2°56.094 2.3 346 3 102080 93
2007-02-15 07:50:13 51°13.6 2°56.094 1.8 356 3 102080 93
2007-02-15 07:50:18 51°13.599 2°56.093 2.5 3 3 102080 93
2007-02-15 07:50:23 51°13.599 2°56.093 1.9 1 3 102080 93
2007-02-15 07:50:28 51°13.599 2°56.093 2.1 2 3 102080 93
2007-02-15 07:50:33 51°13.598 2°56.093 2.1 -999 3 102080 93
2007-02-15 07:50:38 51°13.598 2°56.093 2.8 348 3 102080 93
2007-02-15 07:50:43 51°13.598 2°56.093 3.4 353 3 102080 93
2007-02-15 07:50:48 51°13.598 2°56.093 2.9 353 3 102080 93
2007-02-15 07:50:53 51°13.599 2°56.093 3 356 3 102080 93
2007-02-15 07:50:58 51°13.599 2°56.093 2.5 356 3 102080 93
2007-02-15 07:51:03 51°13.598 2°56.093 3 351 3 102080 93
2007-02-15 07:51:08 51°13.598 2°56.093 2.3 343 3 102080 93
2007-02-15 07:51:13 51°13.598 2°56.093 2.4 358 3 102080 93
2007-02-15 07:51:18 51°13.598 2°56.093 3.4 355 3 102080 93
2007-02-15 07:51:23 51°13.598 2°56.093 2.4 352 3 102080 93
2007-02-15 07:51:28 51°13.598 2°56.093 2.8 356 3 102080 93
2007-02-15 07:51:33 51°13.598 2°56.093 2.5 -999 3 102080 93
2007-02-15 07:51:38 51°13.597 2°56.094 2.7 350 3 102080 93
2007-02-15 07:51:43 51°13.597 2°56.094 2.5 358 3 102080 93
2007-02-15 07:51:48 51°13.597 2°56.094 2.3 341 3 102080 93
2007-02-15 07:51:53 51°13.597 2°56.094 2.5 358 3 102080 93
2007-02-15 07:51:58 51°13.598 2°56.094 2.6 343 3 102080 93
2007-02-15 07:52:03 51°13.598 2°56.094 2.5 279 3 102080 93
2007-02-15 07:52:08 51°13.598 2°56.094 2.2 350 3 102080 93
2007-02-15 07:52:13 51°13.598 2°56.094 1.6 -999 3 102080 93
2007-02-15 07:52:18 51°13.598 2°56.094 1.7 4 3 102080 93
2007-02-15 07:52:23 51°13.598 2°56.094 2.1 2 3 102080 93
2007-02-15 07:52:28 51°13.598 2°56.094 2.6 6 3 102080 93
2007-02-15 07:52:33 51°13.598 2°56.094 2.1 -999 3 102080 93
2007-02-15 07:52:38 51°13.598 2°56.094 2.4 350 3 102080 93
2007-02-15 07:52:43 51°13.599 2°56.094 2.1 347 3 102080 93
2007-02-15 07:52:48 51°13.599 2°56.094 2.5 357 3 102080 93
2007-02-15 07:52:53 51°13.599 2°56.094 2.5 350 3 102080 93
2007-02-15 07:52:58 51°13.599 2°56.094 2.7 348 3 102080 93
2007-02-15 07:53:03 51°13.599 2°56.094 3.3 355 3 102080 93
2007-02-15 07:53:08 51°13.599 2°56.094 3.3 360 3 102080 93
2007-02-15 07:53:13 51°13.599 2°56.094 2.7 351 3 102080 93
2007-02-15 07:53:18 51°13.599 2°56.094 2.2 353 3 102080 93
2007-02-15 07:53:23 51°13.599 2°56.094 2.9 355 3 102080 93
2007-02-15 07:53:28 51°13.599 2°56.094 3 352 3 102080 93
2007-02-15 07:53:33 51°13.599 2°56.094 2.5 -999 3 102080 93
2007-02-15 07:53:38 51°13.599 2°56.094 2.3 356 3 102080 93
2007-02-15 07:53:43 51°13.599 2°56.094 2.7 280 3 102080 93
2007-02-15 07:53:47 51°13.599 2°56.094 3.2 346 3 102080 93
2007-02-15 07:53:53 51°13.599 2°56.094 2.6 351 3 102080 93
2007-02-15 07:53:58 51°13.599 2°56.094 3 355 3 102080 93
2007-02-15 07:54:03 51°13.599 2°56.094 3.1 353 3 102080 93
2007-02-15 07:54:07 51°13.599 2°56.094 2.9 354 3 102080 93
2007-02-15 07:54:13 51°13.599 2°56.094 3.1 356 3 102080 93
2007-02-15 07:54:18 51°13.599 2°56.094 2.9 350 3 102080 93
2007-02-15 07:54:23 51°13.599 2°56.094 2.6 352 3 102080 93
2007-02-15 07:54:28 51°13.598 2°56.094 2.7 355 3 102080 93
2007-02-15 07:54:33 51°13.598 2°56.094 2.2 -999 3 102080 93
2007-02-15 07:54:38 51°13.599 2°56.094 2.3 345 3 102080 93
2007-02-15 07:54:43 51°13.599 2°56.094 2.1 357 3 102080 93
2007-02-15 07:54:48 51°13.599 2°56.094 2.1 358 3 102080 93
2007-02-15 07:54:53 51°13.599 2°56.094 1.8 349 3 102080 93
2007-02-15 07:54:58 51°13.599 2°56.094 2.3 354 3 102080 93
2007-02-15 07:55:03 51°13.599 2°56.094 2.3 282 3 102080 93
2007-02-15 07:55:07 51°13.599 2°56.094 2.8 346 3 102080 93
2007-02-15 07:55:13 51°13.598 2°56.094 2.7 355 3 102080 93
2007-02-15 07:55:18 51°13.598 2°56.094 2.9 4 3 102080 93
2007-02-15 07:55:23 51°13.598 2°56.094 2.7 279 3 102080 93
2007-02-15 07:55:28 51°13.599 2°56.094 2.8 350 3 102080 93
2007-02-15 07:55:33 51°13.599 2°56.094 3.1 1 3 102080 93
2007-02-15 07:55:38 51°13.599 2°56.094 2.5 355 3 102080 93
2007-02-15 07:55:43 51°13.599 2°56.094 2.1 354 3 102080 93
2007-02-15 07:55:47 51°13.599 2°56.094 1.9 358 3.1 102090 93
2007-02-15 07:55:53 51°13.599 2°56.094 1.6 280 3.1 102090 93
2007-02-15 07:55:58 51°13.599 2°56.094 2.1 347 3.1 102080 93
2007-02-15 07:56:03 51°13.599 2°56.094 2.6 355 3.1 102080 93
2007-02-15 07:56:07 51°13.6 2°56.094 2.5 357 3.1 102090 93
2007-02-15 07:56:13 51°13.6 2°56.094 2.5 3 3.1 102090 93
2007-02-15 07:56:17 51°13.6 2°56.094 2.6 346 3.1 102090 93
2007-02-15 07:56:23 51°13.6 2°56.094 2.3 352 3.1 102090 93
2007-02-15 07:56:27 51°13.6 2°56.094 2.8 347 3.1 102090 93
2007-02-15 07:56:33 51°13.599 2°56.094 2.3 356 3.1 102090 93
2007-02-15 07:56:37 51°13.599 2°56.094 2.9 5 3.1 102090 93
2007-02-15 07:56:43 51°13.599 2°56.094 2.6 14 3.1 102090 93
2007-02-15 07:56:47 51°13.599 2°56.094 2.2 21 3.1 102090 93
2007-02-15 07:56:53 51°13.599 2°56.094 2.4 349 3.1 102090 93
2007-02-15 07:56:58 51°13.599 2°56.094 2.7 359 3.1 102090 93
2007-02-15 07:57:03 51°13.599 2°56.094 2.1 358 3.1 102090 93
2007-02-15 07:57:07 51°13.599 2°56.094 2.9 355 3.1 102080 93
2007-02-15 07:57:13 51°13.599 2°56.094 2.9 280 3.1 102080 93
2007-02-15 07:57:18 51°13.599 2°56.094 2.9 350 3.1 102090 93
2007-02-15 07:57:23 51°13.599 2°56.094 2.9 282 3.1 102090 93
2007-02-15 07:57:28 51°13.599 2°56.094 2.1 355 3.1 102090 92
2007-02-15 07:57:33 51°13.599 2°56.094 2.1 1 3.1 102090 92
2007-02-15 07:57:38 51°13.599 2°56.094 2.8 -999 3.1 102090 92
2007-02-15 07:57:43 51°13.599 2°56.094 3 349 3.1 102090 92
2007-02-15 07:57:48 51°13.599 2°56.094 2.6 360 3.1 102090 92
2007-02-15 07:57:53 51°13.599 2°56.094 2.7 5 3.1 102090 92
2007-02-15 07:57:58 51°13.599 2°56.094 3.2 2 3.1 102090 92
2007-02-15 07:58:03 51°13.599 2°56.094 2.5 2 3.1 102090 92
2007-02-15 07:58:07 51°13.599 2°56.094 3 360 3.1 102090 92
2007-02-15 07:58:13 51°13.6 2°56.094 2.6 -999 3.1 102090 92
2007-02-15 07:58:18 51°13.6 2°56.094 2.6 358 3.1 102090 92
2007-02-15 07:58:23 51°13.6 2°56.094 2.9 3 3.1 102090 92
2007-02-15 07:58:27 51°13.6 2°56.094 2.9 1 3.1 102090 92
2007-02-15 07:58:33 51°13.6 2°56.094 2.5 6 3.1 102090 92
2007-02-15 07:58:38 51°13.6 2°56.094 3.1 354 3.1 102090 92
2007-02-15 07:58:43 51°13.6 2°56.094 3.6 359 3.1 102090 92
2007-02-15 07:58:47 51°13.6 2°56.094 3.2 1 3.1 102090 92
2007-02-15 07:58:53 51°13.6 2°56.094 3.6 2 3.1 102090 92
2007-02-15 07:58:57 51°13.6 2°56.094 3.1 356 3.1 102100 92
2007-02-15 07:59:03 51°13.599 2°56.094 2.9 355 3.1 102100 92
2007-02-15 07:59:08 51°13.6 2°56.094 2.2 -999 3.1 102100 92
2007-02-15 07:59:13 51°13.6 2°56.094 3 352 3.1 102100 92
2007-02-15 07:59:18 51°13.6 2°56.094 2.8 359 3.1 102100 92
2007-02-15 07:59:23 51°13.599 2°56.094 2.9 349 3.1 102100 92
2007-02-15 07:59:28 51°13.599 2°56.094 2.5 2 3.1 102100 92
2007-02-15 07:59:33 51°13.599 2°56.094 2.7 3 3.1 102100 92
2007-02-15 07:59:38 51°13.599 2°56.094 3.1 -999 3.1 102100 92
2007-02-15 07:59:43 51°13.6 2°56.094 3 359 3.1 102100 92
2007-02-15 07:59:48 51°13.6 2°56.094 3.4 357 3.1 102100 92
2007-02-15 07:59:53 51°13.6 2°56.094 3.2 353 3.1 102100 92
2007-02-15 07:59:58 51°13.6 2°56.094 3.1 356 3.1 102100 92
2007-02-15 08:00:03 51°13.599 2°56.094 3.3 1 3.1 102100 92
2007-02-15 08:00:07 51°13.599 2°56.094 3.6 360 3.1 102100 92
2007-02-15 08:00:13 51°13.599 2°56.094 2.9 351 3.1 102100 92
2007-02-15 08:00:18 51°13.598 2°56.094 2.9 7 3.1 102100 92
2007-02-15 08:00:23 51°13.599 2°56.094 3 2 3.1 102100 92
2007-02-15 08:00:27 51°13.598 2°56.094 2.8 2 3.1 102100 92
2007-02-15 08:00:33 51°13.598 2°56.094 2.6 357 3.1 102100 92
2007-02-15 08:00:38 51°13.598 2°56.094 2.7 355 3.2 102100 92
2007-02-15 08:00:43 51°13.598 2°56.094 2.4 1 3.2 102100 92
2007-02-15 08:00:47 51°13.598 2°56.094 2.1 358 3.1 102100 92
2007-02-15 08:00:53 51°13.599 2°56.094 2.5 4 3.1 102100 92
2007-02-15 08:00:58 51°13.599 2°56.094 3.2 4 3.1 102100 92
2007-02-15 08:01:03 51°13.599 2°56.094 3 6 3.1 102100 92
2007-02-15 08:01:07 51°13.599 2°56.094 2.2 353 3.2 102100 92
2007-02-15 08:01:13 51°13.598 2°56.094 2.7 -999 3.2 102100 92
2007-02-15 08:01:18 51°13.598 2°56.094 3.4 8 3.2 102100 92
2007-02-15 08:01:23 51°13.598 2°56.094 2.2 16 3.2 102100 92
2007-02-15 08:01:27 51°13.598 2°56.094 1.7 23 3.2 102100 92
2007-02-15 08:01:33 51°13.598 2°56.094 2.6 279 3.2 102100 92
2007-02-15 08:01:37 51°13.598 2°56.094 2.7 346 3.2 102100 92
2007-02-15 08:01:43 51°13.598 2°56.094 2.5 351 3.2 102100 92
2007-02-15 08:01:47 51°13.598 2°56.095 2.1 356 3.2 102100 92
2007-02-15 08:01:53 51°13.598 2°56.095 2.5 281 3.2 102100 92
2007-02-15 08:01:58 51°13.598 2°56.095 2.7 6 3.2 102100 92
2007-02-15 08:02:03 51°13.598 2°56.095 2.8 13 3.2 102100 92
2007-02-15 08:02:08 51°13.598 2°56.095 3 356 3.2 102100 92
2007-02-15 08:02:13 51°13.598 2°56.095 2.4 4 3.2 102100 92
2007-02-15 08:02:18 51°13.598 2°56.095 2.3 352 3.2 102100 92
2007-02-15 08:02:23 51°13.598 2°56.095 2.6 5 3.2 102100 92
2007-02-15 08:02:28 51°13.597 2°56.095 2.2 6 3.2 102100 92
2007-02-15 08:02:33 51°13.597 2°56.095 2.4 356 3.2 102100 92
2007-02-15 08:02:38 51°13.597 2°56.095 2.3 347 3.2 102100 92
2007-02-15 08:02:43 51°13.597 2°56.095 2 357 3.2 102100 92
2007-02-15 08:02:48 51°13.597 2°56.095 2.9 7 3.3 102100 92
2007-02-15 08:02:53 51°13.597 2°56.095 3.2 358 3.3 102100 92
2007-02-15 08:02:58 51°13.597 2°56.095 2.9 354 3.3 102100 92
2007-02-15 08:03:03 51°13.597 2°56.095 2.6 356 3.3 102100 92
2007-02-15 08:03:07 51°13.597 2°56.095 3.4 4 3.3 102100 91
2007-02-15 08:03:13 51°13.597 2°56.095 2.5 4 3.3 102100 91
2007-02-15 08:03:18 51°13.597 2°56.095 2.4 349 3.3 102100 91
2007-02-15 08:03:23 51°13.597 2°56.094 2 1 3.3 102100 91
2007-02-15 08:03:27 51°13.597 2°56.095 2.1 347 3.3 102100 91
2007-02-15 08:03:33 51°13.597 2°56.095 2.1 352 3.3 102100 91
2007-02-15 08:03:38 51°13.597 2°56.095 2.1 357 3.3 102100 91
2007-02-15 08:03:43 51°13.597 2°56.095 3 3 3.3 102100 91
2007-02-15 08:03:47 51°13.597 2°56.095 2.4 13 3.3 102100 91
2007-02-15 08:03:53 51°13.597 2°56.095 2.6 10 3.3 102100 91
2007-02-15 08:03:58 51°13.597 2°56.095 2.8 360 3.3 102100 91
2007-02-15 08:04:03 51°13.597 2°56.095 2.7 352 3.3 102100 91
2007-02-15 08:04:07 51°13.597 2°56.095 2.9 357 3.3 102100 91
2007-02-15 08:04:13 51°13.597 2°56.095 3.9 354 3.3 102100 91
2007-02-15 08:04:17 51°13.597 2°56.095 3.6 -999 3.3 102100 91
2007-02-15 08:04:23 51°13.597 2°56.095 3.7 359 3.3 102100 91
2007-02-15 08:04:27 51°13.597 2°56.095 3.4 360 3.3 102100 91
2007-02-15 08:04:33 51°13.597 2°56.095 2.4 351 3.3 102100 91
2007-02-15 08:04:38 51°13.597 2°56.095 3.5 6 3.4 102100 91
2007-02-15 08:04:43 51°13.597 2°56.095 3.7 360 3.4 102100 91
2007-02-15 08:04:48 51°13.597 2°56.095 2.8 356 3.4 102100 91
2007-02-15 08:04:53 51°13.597 2°56.095 3.1 359 3.4 102100 91
2007-02-15 08:04:58 51°13.598 2°56.095 3.8 360 3.4 102100 91
2007-02-15 08:05:03 51°13.598 2°56.095 3.9 1 3.4 102100 91
2007-02-15 08:05:08 51°13.598 2°56.095 3.3 -999 3.4 102110 91
2007-02-15 08:05:13 51°13.598 2°56.094 2.7 352 3.4 102110 91
2007-02-15 08:05:18 51°13.598 2°56.094 2 352 3.4 102100 91
2007-02-15 08:05:23 51°13.598 2°56.094 3 4 3.4 102100 91
2007-02-15 08:05:27 51°13.598 2°56.094 1.9 3 3.4 102100 91
2007-02-15 08:05:33 51°13.598 2°56.094 2 -999 3.4 102100 91
2007-02-15 08:05:38 51°13.598 2°56.094 2.7 353 3.4 102100 91
2007-02-15 08:05:43 51°13.598 2°56.094 3.6 360 3.4 102100 91
2007-02-15 08:05:47 51°13.598 2°56.094 3.3 357 3.4 102100 91
2007-02-15 08:05:53 51°13.598 2°56.094 1.8 357 3.4 102100 91
2007-02-15 08:05:58 51°13.598 2°56.094 2.4 350 3.4 102100 91
2007-02-15 08:06:03 51°13.598 2°56.094 3 358 3.4 102100 91
2007-02-15 08:06:07 51°13.598 2°56.094 3.2 355 3.4 102110 91
2007-02-15 08:06:13 51°13.598 2°56.094 2.7 357 3.4 102110 91
2007-02-15 08:06:18 51°13.598 2°56.094 2.5 6 3.4 102100 91
2007-02-15 08:06:23 51°13.598 2°56.094 2.3 6 3.4 102100 91
2007-02-15 08:06:27 51°13.598 2°56.094 2.6 349 3.4 102100 90
2007-02-15 08:06:33 51°13.598 2°56.094 2.1 353 3.4 102100 90
2007-02-15 08:06:37 51°13.598 2°56.094 2.2 347 3.4 102100 90
2007-02-15 08:06:43 51°13.598 2°56.093 3.3 353 3.4 102100 90
2007-02-15 08:06:47 51°13.598 2°56.093 2.8 356 3.4 102110 90
2007-02-15 08:06:53 51°13.599 2°56.093 2.6 2 3.4 102110 90
2007-02-15 08:06:58 51°13.599 2°56.093 2.6 3 3.4 102100 90
2007-02-15 08:07:03 51°13.599 2°56.093 3.4 1 3.4 102100 90
2007-02-15 08:07:08 51°13.599 2°56.093 2.6 9 3.4 102100 90
2007-02-15 08:07:13 51°13.599 2°56.093 2.4 3 3.4 102100 90
2007-02-15 08:07:18 51°13.599 2°56.093 2.4 360 3.4 102100 90
2007-02-15 08:07:23 51°13.599 2°56.093 2.4 351 3.4 102100 90
2007-02-15 08:07:28 51°13.599 2°56.093 3.2 350 3.4 102100 90
2007-02-15 08:07:33 51°13.599 2°56.093 2.7 360 3.4 102100 90
2007-02-15 08:07:38 51°13.6 2°56.093 3.6 4 3.4 102100 90
2007-02-15 08:07:43 51°13.6 2°56.093 3.3 353 3.4 102100 90
2007-02-15 08:07:48 51°13.6 2°56.093 2.2 5 3.4 102100 90
2007-02-15 08:07:53 51°13.6 2°56.093 3.3 352 3.4 102100 90
2007-02-15 08:07:58 51°13.599 2°56.093 2.9 8 3.4 102100 90
2007-02-15 08:08:03 51°13.599 2°56.093 3.2 6 3.4 102100 90
2007-02-15 08:08:07 51°13.598 2°56.093 2.6 3 3.5 102110 90
2007-02-15 08:08:13 51°13.598 2°56.093 2.7 3 3.5 102110 90
2007-02-15 08:08:18 51°13.598 2°56.093 2.2 6 3.5 102100 90
2007-02-15 08:08:23 51°13.599 2°56.093 2.4 350 3.5 102100 90
2007-02-15 08:08:27 51°13.599 2°56.093 2.5 351 3.5 102110 90
2007-02-15 08:08:33 51°13.599 2°56.093 2.6 351 3.5 102110 90
2007-02-15 08:08:38 51°13.599 2°56.093 3.1 352 3.5 102110 90
2007-02-15 08:08:43 51°13.599 2°56.093 2.8 351 3.5 102110 90
2007-02-15 08:08:47 51°13.599 2°56.093 2.7 351 3.5 102110 90
2007-02-15 08:08:53 51°13.599 2°56.093 2.8 351 3.5 102110 90
2007-02-15 08:08:58 51°13.599 2°56.093 2.5 1 3.5 102110 90
2007-02-15 08:09:03 51°13.598 2°56.093 2.6 359 3.5 102110 90
2007-02-15 08:09:07 51°13.598 2°56.093 2.3 2 3.5 102100 90
2007-02-15 08:09:13 51°13.598 2°56.093 3.1 10 3.5 102100 90
2007-02-15 08:09:18 51°13.598 2°56.093 2.9 4 3.5 102110 90
2007-02-15 08:09:23 51°13.598 2°56.093 3.4 352 3.5 102110 90
2007-02-15 08:09:28 51°13.599 2°56.093 2.5 359 3.5 102110 90
2007-02-15 08:09:33 51°13.599 2°56.093 1.8 -999 3.5 102110 90
2007-02-15 08:09:38 51°13.599 2°56.093 1.3 354 3.5 102110 90
2007-02-15 08:09:43 51°13.599 2°56.093 1.6 279 3.5 102110 90
2007-02-15 08:09:48 51°13.599 2°56.093 2.7 344 3.5 102110 89
2007-02-15 08:09:53 51°13.599 2°56.093 2.1 279 3.5 102110 89
2007-02-15 08:09:58 51°13.599 2°56.093 3 348 3.5 102110 89
2007-02-15 08:10:03 51°13.599 2°56.093 2.7 352 3.5 102110 89
2007-02-15 08:10:08 51°13.599 2°56.093 3.2 353 3.5 102110 89
2007-02-15 08:10:13 51°13.599 2°56.093 3.3 352 3.5 102110 89
2007-02-15 08:10:18 51°13.599 2°56.093 3 346 3.5 102110 89
2007-02-15 08:10:23 51°13.599 2°56.093 2.4 358 3.5 102110 89
2007-02-15 08:10:28 51°13.599 2°56.093 2.2 2 3.5 102100 89
2007-02-15 08:10:33 51°13.599 2°56.093 3.1 2 3.5 102100 89
2007-02-15 08:10:38 51°13.599 2°56.093 2.7 1 3.5 102110 89
2007-02-15 08:10:43 51°13.6 2°56.093 2.4 353 3.5 102110 89
2007-02-15 08:10:47 51°13.6 2°56.093 2.2 357 3.6 102110 89
2007-02-15 08:10:53 51°13.6 2°56.093 2.3 358 3.6 102110 89
2007-02-15 08:10:58 51°13.6 2°56.093 2.4 356 3.5 102110 89
2007-02-15 08:11:03 51°13.6 2°56.093 2.8 351 3.5 102110 89
2007-02-15 08:11:07 51°13.599 2°56.093 2.9 350 3.5 102110 89
2007-02-15 08:11:13 51°13.599 2°56.093 2.5 357 3.5 102110 89
2007-02-15 08:11:18 51°13.599 2°56.093 2.3 351 3.6 102110 89
2007-02-15 08:11:23 51°13.599 2°56.093 2.1 356 3.6 102110 89
2007-02-15 08:11:27 51°13.599 2°56.093 1.6 357 3.6 102110 89
2007-02-15 08:11:33 51°13.599 2°56.093 1.9 349 3.6 102110 89
2007-02-15 08:11:38 51°13.599 2°56.093 2.9 355 3.6 102110 89
2007-02-15 08:11:43 51°13.599 2°56.094 3 359 3.6 102110 89
2007-02-15 08:11:47 51°13.599 2°56.094 3.6 10 3.5 102100 89
2007-02-15 08:11:53 51°13.598 2°56.094 4 351 3.5 102100 89
2007-02-15 08:11:57 51°13.598 2°56.094 2.4 -999 3.6 102100 89
2007-02-15 08:12:03 51°13.597 2°56.094 1.9 351 3.6 102100 89
2007-02-15 08:12:07 51°13.598 2°56.094 2.1 353 3.6 102110 89
2007-02-15 08:12:13 51°13.597 2°56.094 2.5 351 3.6 102110 89
2007-02-15 08:12:18 51°13.597 2°56.094 2.7 349 3.6 102100 89
2007-02-15 08:12:23 51°13.597 2°56.094 2.5 351 3.6 102100 89
2007-02-15 08:12:28 51°13.597 2°56.094 2.7 357 3.6 102100 89
2007-02-15 08:12:33 51°13.597 2°56.094 2.4 357 3.6 102100 89
2007-02-15 08:12:38 51°13.597 2°56.094 2.7 354 3.6 102110 89
2007-02-15 08:12:43 51°13.598 2°56.094 2.1 352 3.6 102110 89
2007-02-15 08:12:48 51°13.597 2°56.094 3.9 355 3.6 102110 89
2007-02-15 08:12:53 51°13.597 2°56.094 3.3 358 3.6 102110 89
2007-02-15 08:12:58 51°13.596 2°56.094 2.5 355 3.6 102100 89
2007-02-15 08:13:03 51°13.595 2°56.095 2.9 3 3.6 102100 89
2007-02-15 08:13:08 51°13.595 2°56.095 2.9 352 3.6 102100 89
2007-02-15 08:13:13 51°13.595 2°56.095 2.3 357 3.6 102100 89
2007-02-15 08:13:18 51°13.594 2°56.095 2.3 4 3.6 102100 89
2007-02-15 08:13:23 51°13.594 2°56.095 2.1 351 3.6 102100 89
2007-02-15 08:13:27 51°13.594 2°56.095 3.1 355 3.6 102110 89
2007-02-15 08:13:33 51°13.594 2°56.095 3.1 353 3.6 102110 89
2007-02-15 08:13:38 51°13.594 2°56.095 2.4 2 3.6 102100 88
2007-02-15 08:13:43 51°13.594 2°56.095 2.2 353 3.6 102100 88
2007-02-15 08:13:47 51°13.594 2°56.095 2.8 352 3.6 102110 88
2007-02-15 08:13:53 51°13.594 2°56.095 3.1 352 3.6 102110 88
2007-02-15 08:13:58 51°13.595 2°56.095 3 353 3.6 102110 88
2007-02-15 08:14:03 51°13.595 2°56.095 3.6 351 3.6 102110 88
2007-02-15 08:14:07 51°13.595 2°56.095 3.9 357 3.6 102110 88
2007-02-15 08:14:13 51°13.595 2°56.095 3.1 351 3.6 102110 88
2007-02-15 08:14:18 51°13.595 2°56.095 2.9 4 3.6 102110 88
2007-02-15 08:14:23 51°13.595 2°56.095 2.7 358 3.6 102110 88
2007-02-15 08:14:27 51°13.595 2°56.095 2.3 7 3.6 102100 88
2007-02-15 08:14:33 51°13.596 2°56.095 2.3 -999 3.6 102100 88
2007-02-15 08:14:37 51°13.596 2°56.095 2.2 358 3.6 102100 88
2007-02-15 08:14:43 51°13.596 2°56.095 2.2 358 3.6 102100 88
2007-02-15 08:14:48 51°13.596 2°56.095 1.8 350 3.6 102110 88
2007-02-15 08:14:53 51°13.596 2°56.095 2.8 357 3.6 102110 88
2007-02-15 08:14:58 51°13.596 2°56.095 2.4 355 3.6 102110 88
2007-02-15 08:15:03 51°13.596 2°56.095 2.5 282 3.6 102110 88
2007-02-15 08:15:08 51°13.596 2°56.095 2.7 346 3.6 102110 88
2007-02-15 08:15:13 51°13.596 2°56.095 3.1 357 3.6 102110 88
2007-02-15 08:15:18 51°13.596 2°56.095 3.5 347 3.7 102110 88
2007-02-15 08:15:23 51°13.596 2°56.095 3.3 351 3.7 102110 88
2007-02-15 08:15:28 51°13.596 2°56.095 3.4 355 3.7 102110 88
2007-02-15 08:15:33 51°13.596 2°56.095 3 350 3.7 102110 88
2007-02-15 08:15:38 51°13.596 2°56.095 3.4 356 3.7 102110 88
2007-02-15 08:15:43 51°13.596 2°56.095 3.4 3 3.7 102110 88
2007-02-15 08:15:48 51°13.596 2°56.095 3.3 11 3.7 102110 88
2007-02-15 08:15:53 51°13.596 2°56.095 2.7 5 3.7 102110 88
2007-02-15 08:15:58 51°13.596 2°56.095 2.8 359 3.7 102110 88
2007-02-15 08:16:03 51°13.596 2°56.095 2.6 355 3.7 102110 88
2007-02-15 08:16:07 51°13.596 2°56.095 2.1 345 3.7 102110 88
2007-02-15 08:16:13 51°13.596 2°56.096 2.6 358 3.7 102110 88
2007-02-15 08:16:18 51°13.596 2°56.095 3 353 3.7 102110 88
2007-02-15 08:16:23 51°13.596 2°56.095 2.8 353 3.7 102110 88
2007-02-15 08:16:27 51°13.596 2°56.095 3.6 356 3.7 102110 88
2007-02-15 08:16:33 51°13.596 2°56.095 3.5 351 3.7 102110 88
2007-02-15 08:16:38 51°13.596 2°56.095 4 354 3.7 102110 88
2007-02-15 08:16:43 51°13.596 2°56.095 4.4 356 3.7 102110 88
2007-02-15 08:16:47 51°13.596 2°56.095 4 354 3.7 102110 88
2007-02-15 08:16:53 51°13.596 2°56.095 3.4 354 3.7 102110 88
2007-02-15 08:16:58 51°13.596 2°56.095 3.5 355 3.7 102110 88
2007-02-15 08:17:03 51°13.596 2°56.095 2.7 351 3.7 102110 88
2007-02-15 08:17:07 51°13.596 2°56.095 2.3 354 3.7 102110 88
2007-02-15 08:17:13 51°13.596 2°56.095 2.6 356 3.7 102110 88
2007-02-15 08:17:18 51°13.596 2°56.095 2.6 354 3.7 102110 88
2007-02-15 08:17:23 51°13.596 2°56.095 2.8 283 3.7 102110 88
2007-02-15 08:17:28 51°13.597 2°56.095 3.2 344 3.7 102110 88
2007-02-15 08:17:33 51°13.597 2°56.095 3.4 358 3.7 102110 88
2007-02-15 08:17:38 51°13.596 2°56.095 2.7 358 3.7 102110 88
2007-02-15 08:17:43 51°13.596 2°56.095 3.2 354 3.7 102110 88
2007-02-15 08:17:48 51°13.596 2°56.095 3.4 356 3.7 102110 88
2007-02-15 08:17:53 51°13.596 2°56.095 3.7 349 3.7 102110 88
2007-02-15 08:17:58 51°13.596 2°56.095 4.2 355 3.7 102110 88
2007-02-15 08:18:03 51°13.597 2°56.095 3.8 355 3.7 102110 88
2007-02-15 08:18:08 51°13.597 2°56.095 3.6 347 3.7 102110 88
2007-02-15 08:18:13 51°13.597 2°56.095 3.3 280 3.7 102110 88
2007-02-15 08:18:18 51°13.596 2°56.095 3.4 352 3.7 102110 88
2007-02-15 08:18:23 51°13.596 2°56.095 3.7 357 3.7 102110 88
2007-02-15 08:18:27 51°13.596 2°56.095 4.1 350 3.7 102110 88
2007-02-15 08:18:33 51°13.597 2°56.094 3.5 349 3.7 102110 88
2007-02-15 08:18:38 51°13.596 2°56.094 3.5 347 3.7 102110 87
2007-02-15 08:18:43 51°13.596 2°56.094 3.3 285 3.7 102110 87
2007-02-15 08:18:47 51°13.596 2°56.094 3.4 357 3.7 102110 87
2007-02-15 08:18:53 51°13.596 2°56.094 3.2 279 3.7 102110 87
2007-02-15 08:18:58 51°13.596 2°56.095 3.8 342 3.7 102110 87
2007-02-15 08:19:03 51°13.596 2°56.095 3.2 350 3.7 102110 87
2007-02-15 08:19:07 51°13.596 2°56.095 2.2 354 3.7 102110 87
2007-02-15 08:19:13 51°13.596 2°56.095 2.5 282 3.7 102110 87
2007-02-15 08:19:18 51°13.596 2°56.095 1.8 345 3.7 102110 87
2007-02-15 08:19:23 51°13.597 2°56.095 2.8 353 3.7 102110 87
2007-02-15 08:19:28 51°13.597 2°56.094 2.6 347 3.7 102110 87
2007-02-15 08:19:33 51°13.597 2°56.094 3.6 350 3.7 102110 87
2007-02-15 08:19:38 51°13.597 2°56.094 2.8 354 3.8 102110 87
2007-02-15 08:19:43 51°13.597 2°56.094 3.7 351 3.8 102110 87
2007-02-15 08:19:48 51°13.597 2°56.094 3.1 1 3.7 102110 87
2007-02-15 08:19:53 51°13.597 2°56.094 3.5 356 3.7 102110 87
2007-02-15 08:19:58 51°13.597 2°56.094 3.6 347 3.8 102100 87
2007-02-15 08:20:03 51°13.597 2°56.094 2.9 281 3.8 102100 87
2007-02-15 08:20:08 51°13.597 2°56.094 2.5 341 3.8 102110 87
2007-02-15 08:20:13 51°13.597 2°56.094 2.5 353 3.8 102110 87
2007-02-15 08:20:18 51°13.597 2°56.094 1.9 347 3.8 102110 87
2007-02-15 08:20:23 51°13.597 2°56.094 2.4 350 3.8 102110 87
2007-02-15 08:20:28 51°13.597 2°56.094 2.5 356 3.8 102110 87
2007-02-15 08:20:33 51°13.597 2°56.094 2.3 -999 3.8 102110 87
2007-02-15 08:20:38 51°13.597 2°56.094 2.4 -999 3.8 102110 87
2007-02-15 08:20:43 51°13.597 2°56.095 2.5 3 3.8 102110 87
2007-02-15 08:20:48 51°13.597 2°56.095 2.5 345 3.8 102100 87
2007-02-15 08:20:53 51°13.597 2°56.095 2.9 359 3.8 102100 87
2007-02-15 08:20:58 51°13.597 2°56.095 2.3 346 3.8 102110 87
2007-02-15 08:21:03 51°13.597 2°56.094 2.3 281 3.8 102110 87
2007-02-15 08:21:07 51°13.597 2°56.094 1.7 341 3.8 102100 87
2007-02-15 08:21:13 51°13.597 2°56.094 2.9 281 3.8 102100 87
2007-02-15 08:21:18 51°13.597 2°56.094 2.6 348 3.8 102100 87
2007-02-15 08:21:23 51°13.597 2°56.094 3 353 3.8 102100 87
2007-02-15 08:21:27 51°13.597 2°56.094 2.6 349 3.8 102100 87
2007-02-15 08:21:33 51°13.597 2°56.094 2.2 355 3.8 102100 87
2007-02-15 08:21:38 51°13.597 2°56.094 2.9 353 3.8 102100 87
2007-02-15 08:21:43 51°13.597 2°56.094 3.1 5 3.8 102100 87
2007-02-15 08:21:47 51°13.597 2°56.094 3.3 -999 3.8 102100 87
2007-02-15 08:21:53 51°13.597 2°56.094 3.6 280 3.8 102100 87
2007-02-15 08:21:58 51°13.597 2°56.094 2.3 354 3.8 102100 87
2007-02-15 08:22:03 51°13.597 2°56.094 2.6 353 3.8 102100 87
2007-02-15 08:22:07 51°13.597 2°56.094 2.6 349 3.8 102100 87
2007-02-15 08:22:13 51°13.597 2°56.094 2.2 282 3.8 102100 87
2007-02-15 08:22:17 51°13.597 2°56.094 2.1 354 3.8 102100 87
2007-02-15 08:22:23 51°13.597 2°56.094 2.2 347 3.8 102100 87
2007-02-15 08:22:28 51°13.597 2°56.094 2.4 353 3.8 102100 87
2007-02-15 08:22:33 51°13.597 2°56.094 2.2 355 3.8 102100 87
2007-02-15 08:22:38 51°13.597 2°56.094 2 341 3.8 102100 87
2007-02-15 08:22:43 51°13.597 2°56.094 2.1 280 3.8 102100 87
2007-02-15 08:22:48 51°13.597 2°56.094 3.9 350 3.8 102100 87
2007-02-15 08:22:53 51°13.597 2°56.094 3.3 281 3.8 102100 87
2007-02-15 08:22:58 51°13.597 2°56.094 2.3 355 3.8 102100 87
2007-02-15 08:23:03 51°13.597 2°56.095 2.7 347 3.8 102100 87
2007-02-15 08:23:08 51°13.597 2°56.095 2.3 340 3.8 102100 87
2007-02-15 08:23:13 51°13.597 2°56.095 2.4 282 3.8 102100 87
2007-02-15 08:23:18 51°13.597 2°56.095 2.3 343 3.8 102100 87
2007-02-15 08:23:23 51°13.597 2°56.095 2.3 283 3.8 102100 87
2007-02-15 08:23:28 51°13.597 2°56.095 3 335 3.8 102100 87
2007-02-15 08:23:33 51°13.597 2°56.095 2.6 354 3.8 102100 87
2007-02-15 08:23:38 51°13.597 2°56.094 2.7 350 3.8 102100 87
2007-02-15 08:23:43 51°13.597 2°56.095 2.6 351 3.8 102100 87
2007-02-15 08:23:47 51°13.597 2°56.095 2.6 348 3.8 102100 87
2007-02-15 08:23:53 51°13.597 2°56.094 2.4 351 3.8 102100 87
2007-02-15 08:23:58 51°13.597 2°56.094 2.3 350 3.8 102090 87
2007-02-15 08:24:03 51°13.597 2°56.095 1.9 356 3.8 102090 87
2007-02-15 08:24:07 51°13.597 2°56.095 3 344 3.8 102100 87
2007-02-15 08:24:13 51°13.597 2°56.095 2.3 352 3.8 102100 87
2007-02-15 08:24:18 51°13.596 2°56.095 2 2 3.8 102100 87
2007-02-15 08:24:23 51°13.596 2°56.095 2 351 3.8 102100 87
2007-02-15 08:24:27 51°13.596 2°56.095 2 350 3.8 102090 87
2007-02-15 08:24:33 51°13.596 2°56.095 2 280 3.8 102090 87
2007-02-15 08:24:38 51°13.596 2°56.095 1.9 349 3.8 102100 87
2007-02-15 08:24:43 51°13.596 2°56.095 2.4 350 3.8 102100 87
2007-02-15 08:24:47 51°13.596 2°56.095 2.7 2 3.8 102100 87
2007-02-15 08:24:53 51°13.596 2°56.095 2.3 280 3.8 102100 87
2007-02-15 08:24:58 51°13.596 2°56.094 2.8 346 3.8 102100 87
2007-02-15 08:25:03 51°13.596 2°56.094 2.6 283 3.8 102100 87
2007-02-15 08:25:08 51°13.596 2°56.094 2.8 346 3.8 102090 87
2007-02-15 08:25:13 51°13.596 2°56.094 2.4 357 3.8 102090 87
2007-02-15 08:25:18 51°13.596 2°56.094 2 347 3.8 102090 87
2007-02-15 08:25:23 51°13.596 2°56.094 2.2 347 3.8 102090 87
2007-02-15 08:25:28 51°13.596 2°56.094 2.7 339 3.8 102090 87
2007-02-15 08:25:33 51°13.597 2°56.094 3 285 3.8 102090 87
2007-02-15 08:25:38 51°13.597 2°56.094 2.6 343 3.8 102100 87
2007-02-15 08:25:43 51°13.597 2°56.094 2.4 360 3.8 102100 87
2007-02-15 08:25:48 51°13.597 2°56.094 2.4 340 3.8 102090 87
2007-02-15 08:25:53 51°13.597 2°56.094 2.7 279 3.8 102090 87
2007-02-15 08:25:58 51°13.597 2°56.094 3.3 345 3.8 102090 87
2007-02-15 08:26:03 51°13.597 2°56.094 2.5 281 3.8 102090 87
2007-02-15 08:26:08 51°13.597 2°56.094 2.4 346 3.8 102090 87
2007-02-15 08:26:13 51°13.597 2°56.094 2.9 350 3.8 102090 87
2007-02-15 08:26:18 51°13.597 2°56.094 2.7 355 3.8 102090 87
2007-02-15 08:26:23 51°13.597 2°56.094 2.5 355 3.8 102090 87
2007-02-15 08:26:27 51°13.597 2°56.094 3 354 3.8 102100 87
2007-02-15 08:26:33 51°13.597 2°56.094 2.4 -999 3.8 102100 87
2007-02-15 08:26:38 51°13.598 2°56.094 1.9 4 3.8 102100 87
2007-02-15 08:26:43 51°13.598 2°56.094 1.2 359 3.8 102100 87
2007-02-15 08:26:47 51°13.598 2°56.094 1.7 328 3.8 102100 87
2007-02-15 08:26:53 51°13.598 2°56.094 2 279 3.8 102100 87
2007-02-15 08:26:58 51°13.598 2°56.094 2.4 347 3.8 102100 87
2007-02-15 08:27:03 51°13.598 2°56.094 3.1 284 3.8 102100 87
2007-02-15 08:27:07 51°13.598 2°56.094 3.1 351 3.8 102090 87
2007-02-15 08:27:13 51°13.598 2°56.094 2.7 356 3.8 102090 87
2007-02-15 08:27:18 51°13.598 2°56.094 2.6 352 3.8 102100 87
2007-02-15 08:27:23 51°13.598 2°56.094 2.6 5 3.8 102100 87
2007-02-15 08:27:27 51°13.598 2°56.094 2.4 352 3.8 102100 87
2007-02-15 08:27:33 51°13.598 2°56.094 2.4 285 3.8 102100 87
2007-02-15 08:27:38 51°13.598 2°56.094 2.4 348 3.8 102100 87
2007-02-15 08:27:43 51°13.598 2°56.094 2.7 349 3.8 102100 87
2007-02-15 08:27:48 51°13.598 2°56.094 3.7 352 3.8 102100 87
2007-02-15 08:27:53 51°13.598 2°56.094 3.5 360 3.8 102100 87
2007-02-15 08:27:58 51°13.598 2°56.094 2.7 351 3.8 102100 87
2007-02-15 08:28:03 51°13.598 2°56.095 2.8 281 3.8 102100 87
2007-02-15 08:28:08 51°13.598 2°56.095 3.6 351 3.8 102100 87
2007-02-15 08:28:13 51°13.598 2°56.095 3.3 356 3.8 102100 87
2007-02-15 08:28:18 51°13.598 2°56.095 3 357 3.8 102100 87
2007-02-15 08:28:23 51°13.598 2°56.095 2.8 356 3.8 102100 87
2007-02-15 08:28:28 51°13.598 2°56.095 2.4 346 3.8 102100 87
2007-02-15 08:28:33 51°13.598 2°56.095 2.1 -999 3.8 102100 87
2007-02-15 08:28:38 51°13.598 2°56.095 2.4 350 3.8 102100 87
2007-02-15 08:28:43 51°13.598 2°56.094 2.3 352 3.8 102100 87
2007-02-15 08:28:48 51°13.597 2°56.094 3.4 354 3.8 102100 87
2007-02-15 08:28:53 51°13.597 2°56.094 2.7 350 3.8 102100 87
2007-02-15 08:28:58 51°13.597 2°56.094 2.1 4 3.8 102100 87
2007-02-15 08:29:03 51°13.598 2°56.094 2.6 357 3.8 102100 87
2007-02-15 08:29:08 51°13.598 2°56.094 2 354 3.8 102100 87
2007-02-15 08:29:13 51°13.598 2°56.094 2 356 3.8 102100 87
2007-02-15 08:29:18 51°13.598 2°56.094 2.4 344 3.8 102100 87
2007-02-15 08:29:23 51°13.598 2°56.094 2.4 353 3.8 102100 87
2007-02-15 08:29:27 51°13.598 2°56.094 2.6 355 3.8 102100 87
2007-02-15 08:29:33 51°13.598 2°56.094 3.1 -999 3.8 102100 87
2007-02-15 08:29:38 51°13.598 2°56.094 2.9 359 3.8 102100 88
2007-02-15 08:29:43 51°13.598 2°56.095 2.3 358 3.8 102100 88
2007-02-15 08:29:47 51°13.598 2°56.095 2.3 349 3.8 102110 88
2007-02-15 08:29:53 51°13.598 2°56.095 2 279 3.8 102110 88
2007-02-15 08:29:58 51°13.598 2°56.095 2 339 3.8 102100 88
2007-02-15 08:30:03 51°13.597 2°56.095 2.1 353 3.8 102100 88
2007-02-15 08:30:08 51°13.597 2°56.095 2.4 354 3.8 102110 88
2007-02-15 08:30:13 51°13.598 2°56.095 3 282 3.8 102110 88
2007-02-15 08:30:18 51°13.598 2°56.095 2.9 343 3.8 102110 88
2007-02-15 08:30:23 51°13.598 2°56.095 3.3 352 3.8 102110 88
2007-02-15 08:30:28 51°13.598 2°56.095 3 359 3.8 102110 88
2007-02-15 08:30:33 51°13.598 2°56.094 3.4 354 3.8 102110 88
2007-02-15 08:30:38 51°13.598 2°56.094 2.4 356 3.9 102100 88
2007-02-15 08:30:43 51°13.598 2°56.094 3.2 352 3.9 102100 88
2007-02-15 08:30:48 51°13.598 2°56.094 3.2 350 3.9 102100 87
2007-02-15 08:30:53 51°13.598 2°56.094 3.8 280 3.9 102100 87
2007-02-15 08:30:58 51°13.598 2°56.094 2.5 357 3.9 102110 87
2007-02-15 08:31:03 51°13.598 2°56.094 1.8 3 3.9 102110 87
2007-02-15 08:31:08 51°13.598 2°56.094 2.7 348 3.9 102110 88
2007-02-15 08:31:13 51°13.598 2°56.094 2.7 352 3.9 102110 88
2007-02-15 08:31:18 51°13.598 2°56.094 2.8 356 3.9 102110 88
2007-02-15 08:31:23 51°13.598 2°56.094 3.2 351 3.9 102110 88
2007-02-15 08:31:27 51°13.598 2°56.094 3.3 346 3.9 102110 88
2007-02-15 08:31:33 51°13.598 2°56.094 2.9 2 3.9 102110 88
2007-02-15 08:31:38 51°13.598 2°56.094 2.4 358 3.9 102110 88
2007-02-15 08:31:43 51°13.598 2°56.094 2.2 346 3.9 102110 88
2007-02-15 08:31:47 51°13.598 2°56.094 2.7 350 3.9 102110 88
2007-02-15 08:31:53 51°13.598 2°56.094 2.4 357 3.9 102110 88
2007-02-15 08:31:58 51°13.598 2°56.094 2.7 2 3.9 102110 88
2007-02-15 08:32:03 51°13.598 2°56.094 3 351 3.9 102110 88
2007-02-15 08:32:07 51°13.598 2°56.094 2.6 354 3.9 102110 88
2007-02-15 08:32:13 51°13.597 2°56.094 2.4 353 3.9 102110 88
2007-02-15 08:32:18 51°13.597 2°56.094 3.4 345 3.9 102100 88
2007-02-15 08:32:23 51°13.596 2°56.094 3.2 283 3.9 102100 88
2007-02-15 08:32:27 51°13.596 2°56.094 4.2 349 3.9 102110 88
2007-02-15 08:32:33 51°13.596 2°56.094 3.5 353 3.9 102110 88
2007-02-15 08:32:38 51°13.596 2°56.094 3.2 353 3.9 102110 87
2007-02-15 08:32:43 51°13.596 2°56.094 2.8 351 3.9 102110 87
2007-02-15 08:32:48 51°13.596 2°56.094 3.2 354 4 102110 87
2007-02-15 08:32:53 51°13.596 2°56.094 3 280 4 102110 87
2007-02-15 08:32:58 51°13.596 2°56.094 2.8 347 4 102110 87
2007-02-15 08:33:03 51°13.597 2°56.094 2.8 287 4 102110 87
2007-02-15 08:33:08 51°13.597 2°56.094 3.4 352 4 102110 87
2007-02-15 08:33:13 51°13.597 2°56.094 3.8 280 4 102110 87
2007-02-15 08:33:18 51°13.597 2°56.094 3.7 358 4 102100 87
2007-02-15 08:33:23 51°13.597 2°56.094 3.5 357 4 102100 87
2007-02-15 08:33:28 51°13.597 2°56.094 3.3 355 4 102100 87
2007-02-15 08:33:33 51°13.597 2°56.094 3.4 352 4 102100 87
2007-02-15 08:33:38 51°13.597 2°56.094 4 346 4 102110 87
2007-02-15 08:33:43 51°13.597 2°56.094 3.8 359 4 102110 87
2007-02-15 08:33:48 51°13.597 2°56.094 3.6 356 4 102100 87
2007-02-15 08:33:53 51°13.597 2°56.094 2.2 350 4 102100 87
2007-02-15 08:33:58 51°13.597 2°56.094 2.8 350 4 102110 87
2007-02-15 08:34:03 51°13.597 2°56.094 3 348 4 102110 87
2007-02-15 08:34:08 51°13.597 2°56.094 2.8 349 4 102100 87
2007-02-15 08:34:13 51°13.597 2°56.094 3.1 352 4 102100 87
2007-02-15 08:34:18 51°13.597 2°56.094 3.8 346 4 102100 87
2007-02-15 08:34:23 51°13.597 2°56.094 3.8 283 4 102100 87
2007-02-15 08:34:28 51°13.597 2°56.094 3.9 350 4 102100 87
2007-02-15 08:34:33 51°13.597 2°56.094 2.8 279 4 102100 87
2007-02-15 08:34:38 51°13.597 2°56.094 3.5 349 4 102100 87
2007-02-15 08:34:43 51°13.597 2°56.093 3.8 -999 4 102100 87
2007-02-15 08:34:47 51°13.597 2°56.093 3.2 355 4 102100 87
2007-02-15 08:34:53 51°13.597 2°56.093 2.6 1 4 102100 87
2007-02-15 08:34:58 51°13.597 2°56.094 2.7 350 4 102100 87
2007-02-15 08:35:03 51°13.597 2°56.093 2.6 349 4 102100 87
2007-02-15 08:35:07 51°13.597 2°56.094 2.2 358 4 102100 87
2007-02-15 08:35:13 51°13.597 2°56.094 2.5 347 4 102100 87
2007-02-15 08:35:18 51°13.597 2°56.094 3.8 350 4 102100 87
2007-02-15 08:35:23 51°13.597 2°56.094 3 286 4 102100 87
2007-02-15 08:35:27 51°13.597 2°56.094 3.7 340 4.1 102100 87
2007-02-15 08:35:33 51°13.597 2°56.094 3 -999 4.1 102100 87
2007-02-15 08:35:38 51°13.597 2°56.094 2.9 359 4.1 102100 87
2007-02-15 08:35:43 51°13.597 2°56.094 2.9 355 4.1 102100 87
2007-02-15 08:35:48 51°13.597 2°56.094 3.6 359 4.1 102100 87
2007-02-15 08:35:53 51°13.597 2°56.094 3.7 359 4.1 102100 87
2007-02-15 08:35:58 51°13.597 2°56.094 3.7 358 4.1 102100 87
2007-02-15 08:36:03 51°13.597 2°56.094 3 352 4.1 102100 87
2007-02-15 08:36:08 51°13.597 2°56.094 3.1 346 4.1 102100 87
2007-02-15 08:36:13 51°13.597 2°56.094 2.6 346 4.1 102100 87
2007-02-15 08:36:18 51°13.597 2°56.094 1.9 344 4.1 102100 87
2007-02-15 08:36:23 51°13.597 2°56.094 1.8 283 4.1 102100 87
2007-02-15 08:36:28 51°13.597 2°56.094 1.4 337 4.1 102100 87
2007-02-15 08:36:33 51°13.597 2°56.094 2.3 281 4.1 102100 87
2007-02-15 08:36:38 51°13.597 2°56.093 3.1 349 4.1 102100 87
2007-02-15 08:36:43 51°13.597 2°56.093 2.9 356 4.1 102100 87
2007-02-15 08:36:48 51°13.597 2°56.093 3.3 355 4.1 102100 86
2007-02-15 08:36:53 51°13.597 2°56.093 2.8 359 4.1 102100 86
2007-02-15 08:36:58 51°13.597 2°56.093 3 358 4.1 102100 87
2007-02-15 08:37:03 51°13.598 2°56.093 1.9 5 4.1 102100 87
2007-02-15 08:37:07 51°13.598 2°56.093 2.2 339 4.1 102100 86
2007-02-15 08:37:13 51°13.598 2°56.093 2.6 279 4.1 102100 86
2007-02-15 08:37:18 51°13.598 2°56.093 3.3 343 4.1 102100 86
2007-02-15 08:37:23 51°13.598 2°56.093 2.8 282 4.1 102100 86
2007-02-15 08:37:27 51°13.598 2°56.093 1.9 349 4.1 102100 86
2007-02-15 08:37:33 51°13.598 2°56.093 2 347 4.1 102100 86
2007-02-15 08:37:38 51°13.598 2°56.093 2.9 352 4.1 102100 86
2007-02-15 08:37:43 51°13.598 2°56.093 2.6 354 4.1 102100 86
2007-02-15 08:37:47 51°13.598 2°56.093 2.3 346 4.1 102100 86
2007-02-15 08:37:53 51°13.598 2°56.093 2.8 351 4.1 102100 86
2007-02-15 08:37:58 51°13.598 2°56.093 3.1 347 4.1 102100 86
2007-02-15 08:38:03 51°13.598 2°56.093 3.2 346 4.1 102100 86
2007-02-15 08:38:07 51°13.598 2°56.093 2.6 345 4.1 102100 86
2007-02-15 08:38:13 51°13.598 2°56.093 2.5 344 4.1 102100 86
2007-02-15 08:38:18 51°13.598 2°56.093 2.7 345 4.1 102100 86
2007-02-15 08:38:23 51°13.598 2°56.093 3.1 349 4.1 102100 86
2007-02-15 08:38:28 51°13.598 2°56.093 1.9 -999 4.1 102100 86
2007-02-15 08:38:33 51°13.598 2°56.093 2.9 351 4.1 102100 86
2007-02-15 08:38:38 51°13.598 2°56.093 2.4 357 4.1 102100 86
2007-02-15 08:38:43 51°13.598 2°56.093 2.7 280 4.1 102100 86
2007-02-15 08:38:48 51°13.599 2°56.093 2.7 352 4.1 102100 86
2007-02-15 08:38:53 51°13.599 2°56.093 2.5 282 4.1 102100 86
2007-02-15 08:38:58 51°13.599 2°56.093 3.1 354 4.1 102100 86
2007-02-15 08:39:03 51°13.599 2°56.093 3 356 4.1 102100 86
2007-02-15 08:39:08 51°13.599 2°56.093 2.3 354 4.1 102100 86
2007-02-15 08:39:13 51°13.599 2°56.093 2.6 281 4.1 102100 86
2007-02-15 08:39:18 51°13.599 2°56.093 2.4 346 4.1 102100 86
2007-02-15 08:39:23 51°13.599 2°56.093 3.3 280 4.1 102100 86
2007-02-15 08:39:28 51°13.599 2°56.093 2.6 342 4.1 102100 86
2007-02-15 08:39:33 51°13.599 2°56.093 4 352 4.1 102100 86
2007-02-15 08:39:38 51°13.598 2°56.093 2.7 360 4.1 102100 86
2007-02-15 08:39:43 51°13.598 2°56.093 2.3 282 4.1 102100 86
2007-02-15 08:39:48 51°13.598 2°56.093 2.6 359 4.1 102100 86
2007-02-15 08:39:53 51°13.598 2°56.093 2.4 360 4.1 102100 86
2007-02-15 08:39:58 51°13.598 2°56.093 3 350 4.1 102100 86
2007-02-15 08:40:03 51°13.598 2°56.093 3.4 351 4.1 102100 86
2007-02-15 08:40:07 51°13.598 2°56.093 2.3 354 4.1 102100 86
2007-02-15 08:40:13 51°13.598 2°56.093 2.1 279 4.1 102100 86
2007-02-15 08:40:18 51°13.598 2°56.093 3 347 4.1 102100 86
2007-02-15 08:40:23 51°13.598 2°56.093 2.9 343 4.1 102100 86
2007-02-15 08:40:27 51°13.598 2°56.093 2.2 2 4.1 102100 86
2007-02-15 08:40:33 51°13.598 2°56.093 2.6 6 4.1 102100 86
2007-02-15 08:40:38 51°13.598 2°56.093 2.4 2 4.1 102100 86
2007-02-15 08:40:43 51°13.598 2°56.093 3.1 356 4.1 102100 86
2007-02-15 08:40:47 51°13.599 2°56.093 3.1 354 4.1 102100 86
2007-02-15 08:40:53 51°13.599 2°56.093 3.4 355 4.1 102100 86
2007-02-15 08:40:58 51°13.599 2°56.093 2.4 344 4.1 102100 86
2007-02-15 08:41:03 51°13.599 2°56.093 2.4 354 4.1 102100 86
2007-02-15 08:41:08 51°13.599 2°56.094 2.8 353 4.1 102100 86
2007-02-15 08:41:13 51°13.599 2°56.094 2.1 353 4.1 102100 86
2007-02-15 08:41:18 51°13.599 2°56.094 2.8 343 4.1 102100 86
2007-02-15 08:41:23 51°13.599 2°56.094 2.6 281 4.1 102100 86
2007-02-15 08:41:28 51°13.598 2°56.093 3 344 4.1 102100 86
2007-02-15 08:41:33 51°13.598 2°56.093 3.2 -999 4.1 102100 86
2007-02-15 08:41:38 51°13.598 2°56.093 2.2 353 4.1 102100 86
2007-02-15 08:41:43 51°13.598 2°56.093 2.3 349 4.1 102100 86
2007-02-15 08:41:48 51°13.598 2°56.093 2.9 350 4.1 102100 86
2007-02-15 08:41:53 51°13.598 2°56.093 2.4 280 4.1 102100 86
2007-02-15 08:41:58 51°13.598 2°56.093 2.4 352 4.1 102110 86
2007-02-15 08:42:03 51°13.598 2°56.093 2.7 280 4.1 102110 86
2007-02-15 08:42:08 51°13.598 2°56.093 3.6 338 4.1 102110 86
2007-02-15 08:42:13 51°13.598 2°56.093 3.5 351 4.1 102110 86
2007-02-15 08:42:18 51°13.598 2°56.093 3.4 359 4.1 102100 86
2007-02-15 08:42:23 51°13.598 2°56.093 3.2 353 4.1 102100 86
2007-02-15 08:42:28 51°13.598 2°56.093 2.1 340 4.1 102110 86
2007-02-15 08:42:33 51°13.599 2°56.093 4 354 4.1 102110 86
2007-02-15 08:42:38 51°13.599 2°56.093 2.6 1 4.1 102100 86
2007-02-15 08:42:43 51°13.599 2°56.093 3.5 353 4.1 102100 86
2007-02-15 08:42:48 51°13.599 2°56.093 2.6 12 4.1 102110 86
2007-02-15 08:42:53 51°13.599 2°56.093 2.7 356 4.1 102110 86
2007-02-15 08:42:58 51°13.599 2°56.093 3.5 352 4.1 102100 86
2007-02-15 08:43:03 51°13.599 2°56.093 3 1 4.1 102100 86
2007-02-15 08:43:07 51°13.6 2°56.093 3.5 355 4.1 102110 86
2007-02-15 08:43:13 51°13.6 2°56.093 3.5 350 4.1 102110 86
2007-02-15 08:43:18 51°13.6 2°56.093 2.4 357 4.1 102110 87
2007-02-15 08:43:23 51°13.599 2°56.093 2.7 352 4.1 102110 87
2007-02-15 08:43:28 51°13.599 2°56.093 2.8 353 4.1 102110 86
2007-02-15 08:43:33 51°13.599 2°56.093 2.9 282 4.1 102110 86
2007-02-15 08:43:38 51°13.599 2°56.093 3.2 358 4.1 102110 86
2007-02-15 08:43:43 51°13.599 2°56.093 3.3 359 4.1 102110 86
2007-02-15 08:43:48 51°13.599 2°56.093 3 359 4.1 102110 86
2007-02-15 08:43:53 51°13.599 2°56.093 3.1 359 4.1 102110 86
2007-02-15 08:43:58 51°13.599 2°56.093 2.4 354 4.1 102110 86
2007-02-15 08:44:03 51°13.598 2°56.092 3.9 360 4.1 102110 86
2007-02-15 08:44:08 51°13.598 2°56.092 3.4 350 4.1 102110 87
2007-02-15 08:44:13 51°13.598 2°56.093 3.9 352 4.1 102110 87
2007-02-15 08:44:18 51°13.598 2°56.093 4.2 351 4.1 102110 87
2007-02-15 08:44:23 51°13.598 2°56.093 3.2 353 4.1 102110 87
2007-02-15 08:44:28 51°13.598 2°56.093 2.3 354 4.1 102110 87
2007-02-15 08:44:33 51°13.598 2°56.093 2.1 -999 4.1 102110 87
2007-02-15 08:44:38 51°13.598 2°56.093 2.9 349 4.1 102110 87
2007-02-15 08:44:43 51°13.598 2°56.093 2.5 344 4.1 102110 87
2007-02-15 08:44:48 51°13.598 2°56.093 2.4 345 4.1 102110 87
2007-02-15 08:44:53 51°13.598 2°56.093 3.7 355 4.1 102110 87
2007-02-15 08:44:58 51°13.598 2°56.093 3.4 356 4.1 102110 87
2007-02-15 08:45:03 51°13.598 2°56.093 3.1 281 4.1 102110 87
2007-02-15 08:45:08 51°13.599 2°56.094 2.4 352 4.1 102110 87
2007-02-15 08:45:13 51°13.599 2°56.094 2.9 356 4.1 102110 87
2007-02-15 08:45:18 51°13.599 2°56.095 2.8 356 4.1 102110 87
2007-02-15 08:45:23 51°13.599 2°56.094 3.3 358 4.1 102110 87
2007-02-15 08:45:28 51°13.598 2°56.094 2.7 355 4.1 102110 87
2007-02-15 08:45:33 51°13.598 2°56.094 3.2 349 4.1 102110 87
2007-02-15 08:45:38 51°13.598 2°56.094 3.8 352 4.1 102110 87
2007-02-15 08:45:43 51°13.598 2°56.094 3.6 360 4.1 102110 87
2007-02-15 08:45:47 51°13.598 2°56.094 3.3 346 4.1 102110 87
2007-02-15 08:45:53 51°13.599 2°56.094 2.9 281 4.1 102110 87
2007-02-15 08:45:58 51°13.599 2°56.094 2.2 -999 4.1 102110 87
2007-02-15 08:46:03 51°13.599 2°56.094 2.9 351 4.1 102110 87
2007-02-15 08:46:07 51°13.599 2°56.094 2.4 353 4.1 102110 87
2007-02-15 08:46:13 51°13.599 2°56.094 3.2 281 4.1 102110 87
2007-02-15 08:46:18 51°13.598 2°56.094 3 350 4.1 102110 87
2007-02-15 08:46:23 51°13.598 2°56.094 3.2 358 4.1 102110 87
2007-02-15 08:46:28 51°13.598 2°56.094 3 355 4.1 102110 87
2007-02-15 08:46:33 51°13.598 2°56.094 2.6 354 4.1 102110 87
2007-02-15 08:46:38 51°13.598 2°56.094 2.4 355 4.1 102110 87
2007-02-15 08:46:43 51°13.598 2°56.094 2.4 354 4.1 102110 87
2007-02-15 08:46:48 51°13.598 2°56.093 2.5 -999 4.1 102110 87
2007-02-15 08:46:53 51°13.598 2°56.094 1.9 358 4.1 102110 87
2007-02-15 08:46:58 51°13.598 2°56.094 2.6 343 4.2 102110 87
2007-02-15 08:47:03 51°13.598 2°56.094 2.1 356 4.2 102110 87
2007-02-15 08:47:08 51°13.598 2°56.094 3.2 351 4.2 102110 87
2007-02-15 08:47:13 51°13.598 2°56.094 3.5 354 4.2 102110 87
2007-02-15 08:47:18 51°13.598 2°56.094 3.1 349 4.2 102110 87
2007-02-15 08:47:23 51°13.599 2°56.095 3.3 279 4.2 102110 87
2007-02-15 08:47:28 51°13.599 2°56.095 3.2 341 4.1 102110 87
2007-02-15 08:47:33 51°13.598 2°56.094 3.9 279 4.1 102110 87
2007-02-15 08:47:38 51°13.598 2°56.094 2.6 356 4.2 102110 87
2007-02-15 08:47:43 51°13.598 2°56.094 3 12 4.2 102110 87
2007-02-15 08:47:48 51°13.598 2°56.095 2.5 356 4.2 102110 87
2007-02-15 08:47:53 51°13.598 2°56.095 2.4 357 4.2 102110 87
2007-02-15 08:47:58 51°13.598 2°56.095 3.5 352 4.2 102110 87
2007-02-15 08:48:03 51°13.598 2°56.095 3.4 351 4.2 102110 87